www.pogodaiklimat.ru

Погода и климат >> Архив погоды >> Индонезия >> Аэропорт Соронг-Джефман


ПОГОДА в Аэропорту Соронг-Джефман

  • Прогноз погоды в Аэропорту Соронг-Джефман
  • Монитор погоды в Аэропорту Соронг-Джефман

АРХИВ ПОГОДЫ в Аэропорту Соронг-Джефман

Время (UTC), дата Ветер
(напр.,м/с)
 
Видим.   Явления Облачность Т
(С)
Тd
(С)
f
(%)
Тe
(С)
Тes
(С)
Комфортность P
(гПа)
Po
(гПа)
Тmin
(С)
Tmax
(С)
R
(мм)
R24
(мм)
S
(см)
03 14.09 Ю 3 9000 м 5/4 360 м
[Cu hum Ac trans Ci fib]
+30.7 +22.3 61 +40 +50 очень
душно
1011.0 1011.0
06 14.09 ЮЗ 6 9000 м 5/4 360 м
[Cu med, cong Ac trans Ci fib]
+31.1 +22.6 61 +41 +43 опасность
перегрева
1008.6 1008.6
09 14.09 Ю 5 9000 м 4/4 360 м
[Cu hum Ac trans Ci fib]
+27.8 +22.4 72 +36 +36 очень
душно
1009.8 1009.8
12 14.09 Ю 2 7000 м 6/4 360 м
[Cu hum Ac trans Ci fib]
+24.8 +22.7 88 +33 +33 очень
душно
1012.4 1012.4 +32.0
15 14.09 В 1 7000 м 6/4 360 м
[Cu hum Ac trans Ci fib]
+23.9 +22.4 91 +31 +31 очень
душно
1012.7 1012.7
18 14.09 штиль 0 7000 м 6/4 360 м
[Cu hum Ac trans Ci fib]
+23.4 +22.6 95 +32 +32 очень
душно
1011.4 1011.4
21 14.09 штиль 0 7000 м 6/4 360 м
[Cu hum Ac trans Ci fib]
+23.2 +22.5 96 +32 +32 очень
душно
1011.9 1011.9
00 15.09 ЮЗ 2 9000 м 5/4 360 м
[Cu hum Ac trans Ci fib]
+27.8 +23.7 78 +38 +43 очень
душно
1013.0 1013.0 +23.0
03 15.09 З 5 9000 м 5/4 360 м
[Cu med, cong Ac trans Ci fib]
+29.7 +24.7 75 +42 +49 опасность
перегрева
1010.6 1010.6
06 15.09 ЮЗ 5 9000 м 5/4 360 м
[Cu med, cong Ac trans Ci fib]
+31.2 +24.2 66 +43 +47 опасность
перегрева
1008.5 1008.5
09 15.09 Ю 5 7000 м 5/4 360 м
[Cu hum Ac trans Ci fib]
+27.8 +23.8 79 +38 +38 очень
душно
1009.6 1009.6
12 15.09 Ю 2 7000 м 6/5 360 м
[Cu hum Ac trans Ci fib]
+25.0 +23.1 89 +33 +33 очень
душно
1012.1 1012.1 +31.6
15 15.09 В 2 7000 м 6/5 360 м
[Cu hum Ac trans Ci fib]
+23.4 +22.6 95 +32 +32 очень
душно
1012.6 1012.6
18 15.09 СВ 1 7000 м 6/5 360 м
[Cu hum Ac trans Ci fib]
+23.5 +22.7 95 +31 +31 очень
душно
1011.4 1011.4
21 15.09 В 1 7000 м 6/5 360 м
[Cu hum Ac trans Ci fib]
+23.6 +22.8 95 +31 +31 очень
душно
1012.1 1012.1
00 16.09 Ю 2 7000 м 5/4 360 м
[Cu hum Ac trans Ci fib]
+27.7 +24.4 82 +39 +44 очень
душно
1013.0 1013.0 +23.0
03 16.09 З 4 9000 м 5/4 360 м
[Cu med, cong Ac trans Ci fib]
+30.0 +25.0 75 +43 +51 опасность
перегрева
1010.7 1010.7
06 16.09 ЮЗ 5 9000 м 6/4 360 м
[Cu med, cong Ac trans Ci fib]
+32.0 +25.0 67 +46 +49 опасность
перегрева
1008.5 1008.5
09 16.09 Ю 5 8000 м 6/4 360 м
[Cu med, cong Ac trans Ci fib]
+28.4 +24.1 78 +40 +40 очень
душно
1009.4 1009.4
12 16.09 ЮВ 2 7000 м 5/4 360 м
[Cu hum Ac trans Ci fib]
+25.3 +23.6 90 +34 +34 очень
душно
1011.9 1011.9 +32.5
15 16.09 В 2 7000 м 5/4 360 м
[Cu hum Ac trans Ci fib]
+24.6 +23.4 93 +33 +33 очень
душно
1011.4 1011.4
18 16.09 ЮВ 2 7000 м 5/4 360 м
[Cu hum Ac trans Ci fib]
+24.5 +23.7 95 +33 +33 очень
душно
1010.6 1010.6
21 16.09 В 1 7000 м 6/5 360 м
[Cu hum Ac trans Ci fib]
+24.6 +23.4 93 +33 +33 очень
душно
1011.8 1011.8
00 17.09 ЮВ 3 8000 м 6/4 360 м
[Cu med, cong Ac trans Ci fib]
+27.9 +24.2 80 +39 +43 очень
душно
1012.6 1012.6 +24.3
03 17.09 ЮЗ 5 9000 м 5/4 360 м
[Cu med, cong Ac trans Ci fib]
+30.5 +25.5 75 +45 +52 опасность
перегрева
1010.9 1010.9
06 17.09 ЮЗ 7 9000 м 5/4 360 м
[Cu med, cong Ac trans Ci fib]
+31.8 +24.3 65 +44 +46 опасность
перегрева
1008.7 1008.7
09 17.09 Ю 6 8000 м 5/3 360 м
[Cu hum Ac trans Ci fib]
+27.9 +23.4 77 +38 +38 очень
душно
1010.1 1010.1
12 17.09 Ю 2 7000 м 6/4 360 м
[Cu hum Ac trans Ci fib]
+26.3 +23.8 86 +36 +36 очень
душно
1013.1 1013.1 +32.4
15 17.09 ЮВ 2 7000 м 6/4 360 м
[Cu hum Ac trans Ci fib]
+25.2 +23.7 91 +34 +34 очень
душно
1013.1 1013.1
18 17.09 ЮВ 1 7000 м 6/4 360 м
[Cu hum Ac trans Ci fib]
+24.1 +23.1 94 +32 +32 очень
душно
1012.0 1012.0
21 17.09 В 1 7000 м 6/4 360 м
[Cu hum Ac trans Ci fib]
+24.5 +23.7 95 +33 +33 очень
душно
1013.0 1013.0
00 18.09 ЮВ 3 8000 м 5/3 360 м
[Cu hum Ac trans Ci fib]
+28.9 +24.1 75 +40 +45 очень
душно
1013.9 1013.9 +23.9
03 18.09 ЮВ 5 9000 м 5/4 360 м
[Cu hum Ac trans Ci fib]
+32.0 +23.7 62 +43 +51 опасность
перегрева
1011.7 1011.7
06 18.09 ЮЗ 5 9000 м 5/4 360 м
[Cu hum Ac trans Ci fib]
+31.4 +26.3 74 +47 +51 опасность
перегрева
1009.1 1009.1
09 18.09 ЮЗ 7 8000 м 5/4 360 м
[Cu hum Ac trans Ci fib]
+27.8 +24.5 82 +39 +39 очень
душно
1010.6 1010.6
12 18.09 Ю 4 7000 м 5/4 360 м
[Cu hum Ac trans Ci fib]
+26.3 +24.0 87 +36 +36 очень
душно
1012.7 1012.7 +32.0
15 18.09 Ю 3 7000 м 5/4 360 м
[Cu hum Ac trans Ci fib]
+25.8 +23.9 89 +35 +35 очень
душно
1012.9 1012.9
18 18.09 ЮВ 2 7000 м 5/4 360 м
[Cu hum Ac trans Ci fib]
+25.4 +23.9 91 +35 +35 очень
душно
1011.6 1011.6
21 18.09 ЮВ 1 7000 м 6/5 360 м
[Cu hum Ac trans Ci fib]
+24.6 +23.6 94 +33 +33 очень
душно
1012.7 1012.7
00 19.09 Ю 3 8000 м 6/4 360 м
[Cu med, cong Ac trans Ci fib]
+27.9 +24.6 82 +39 +44 очень
душно
1013.7 1013.7 +24.6
03 19.09 ЮЗ 4 8000 м 6/4 360 м
[Cu med, cong Ac trans Ci fib]
+29.7 +24.7 75 +42 +50 опасность
перегрева
1011.3 1011.3
06 19.09 З 3 8000 м 5/4 360 м
[Cu hum Ac trans Ci fib]
+30.9 +24.2 68 +43 +49 опасность
перегрева
1008.9 1008.9
09 19.09 ЮЗ 2 6000 м 6/5 360 м
[Cu med, cong Ac trans Ci fib]
+28.9 +24.2 76 +40 +40 очень
душно
1010.0 1010.0
12 19.09 ЮВ 2 7000 м в посл. час дождь 6/5 360 м
[Cu med, cong Ac trans Ci fib]
+26.5 +24.4 88 +37 +37 очень
душно
1011.7 1011.7 +31.4 0.0
15 19.09 В 2 5000 м слаб. дождь 6/6 300 м
[Cb cap Ac trans Ci fib]
+26.0 +24.3 90 +36 +36 очень
душно
1012.1 1012.1 0.5
18 19.09 штиль 0 7000 м {дождь} 6/5 360 м
[Cu hum Ac trans Ci fib]
+23.3 +23.3 100 +33 +33 очень
душно
1010.9 1010.9 0.5
21 19.09 штиль 0 7000 м 6/5 360 м
[Cu med, cong Ac trans Ci fib]
+23.4 +22.2 93 +32 +32 очень
душно
1011.3 1011.3
00 20.09 Ю 2 8000 м 6/4 360 м
[Cu med, cong Ac trans Ci fib]
+27.3 +24.2 83 +38 +43 очень
душно
1012.8 1012.8 +22.0 8
03 20.09 ЮЗ 2 8000 м 6/4 360 м
[Cu med, cong Ac trans Ci fib]
+29.5 +24.0 72 +41 +53 опасность
перегрева
1011.3 1011.3
06 20.09 ЮВ 2 5000 м осадки на расстоянии 9/6 300 м
[Cb cap Ac trans Ci fib]
+25.4 +24.4 94 +35 +38 очень
душно
1010.1 1010.1 6
09 20.09 Ю 2 5000 м в посл. час дождь 9/6 300 м
[Cb cap Ac trans Ci fib]
+24.9 +23.7 93 +34 +34 очень
душно
1011.0 1011.0 0.1
12 20.09 ЮВ 2 6000 м 8/5 360 м
[Cu med, cong Ac trans Ci fib]
+23.8 +23.1 96 +32 +32 очень
душно
1012.6 1012.6 +29.7 0.1
15 20.09 ЮВ 2 6000 м 8/5 360 м
[Cu med, cong Ac trans Ci fib]
+23.3 +23.0 98 +33 +33 очень
душно
1012.1 1012.1 0.1
18 20.09 ЮВ 2 6000 м 6/4 360 м
[Cu med, cong Ac trans Ci fib]
+23.2 +22.0 93 +32 +32 очень
душно
1011.0 1011.0 0.1
21 20.09 ЮВ 2 6000 м 6/4 360 м
[Cu hum Ac trans Ci fib]
+23.6 +22.3 92 +31 +31 очень
душно
1011.5 1011.5 0.1
00 21.09 ЮВ 4 9000 м 5/4 360 м
[Cu hum Ac trans Ci fib]
+27.1 +23.0 78 +36 +40 очень
душно
1012.7 1012.7 +22.9 6

 

Местоположение метеостанции Аэропорт Соронг-Джефман (Индонезия): широта -0.93 долгота 131.11 высота над уровнем моря 3 м.

В архиве по умолчанию представлена погода в Аэропорту Соронг-Джефман за последнюю неделю. Архивные данные за месяц целиком и за предыдущие месяцы, начиная с января 2011 года, Вы можете получить, выбрав интересующий диапазон дат из раскрывающегося списка и нажав кнопку "Ввод!".


*Определитесь, кто Вы:
робот инопланетянин человек

Внимание! Время в таблицах - всемирное. Для получения местного времени необходимо прибавить поправку, которая равна 7 ч.

Смотрите также архив погоды в соседних городах и на ближайших метеорологических станциях:

Погода в Факфаке (Индонезия) (256 км)
Погода в Гесере (Индонезия) (321 км)
Погода в Маноквари (Индонезия) (327 км)
Погода в Амахаи (Индонезия) (366 км)
Погода в Лабухе (Индонезия) (403 км)
Погода в Неира (Индонезия) (422 км)
Погода в Каимана (Индонезия) (423 км)
Погода в Амбоне (Индонезия) (456 км)
Погода в Тернате (Индонезия) (458 км)
Погода в Голеа (Индонезия) (476 км)

Пояснения к столбцам:

Ветер - указаны скорость ветра в м/с - средняя за 10 мин, порывы в срок и между сроками (в фигурных скобках) и направление, откуда дует ветер: С - северный, СВ - северо-восточный, В - восточный, ЮВ - юго-восточный, Ю - южный, ЮЗ - юго-западный, З - западный, СЗ - северо-западный.
Видимость - горизонтальная дальность видимости в метрах или километрах. При видимости от 1 до 10 км при отсутствии осадков обычно наблюдается дымка, при ухудшении видимости до 1 км и менее - туман. В сухую погоду видимость может ухудшаться дымом, пылью или мглою.
Явления - указаны атмосферные явления, наблюдавшиеся в срок или в последний час перед сроком; фигурными скобками обозначены явления, наблюдавшиеся между сроками (за 1-3 часа до срока); квадратными скобками обозначены град или гололедные отложения с указанием их диаметра в мм.
Облачность - указаны через наклонную черту общая и нижняя облачность в баллах и высота нижней границы облаков в метрах; квадратными скобками обозначены формы облаков: Ci - перистые, Cs - перисто-слоистые, Cc - перисто-кучевые, Ac - высококучевые, As - высокослоистые, Sc - слоисто-кучевые, Ns - слоисто-дождевые, Cu - кучевые, Cb - кучево-дождевые. Подробнее классификацию облаков см. в Атласе облаков (PDF).
T - Температура воздуха - температура, измеренная на высоте 2 м над землей.
Td - Температура точки росы - температура, при понижении до которой содержащийся в воздухе водяной пар достигнет насыщения.
f - Относительная влажность воздуха - влажноcть воздуха, измеренная на высоте 2 м над землей.
Te - Эффективная температура - температура, которую ощущает одетый по сезону человек в тени. Характеристика душности погоды. При расчете учитывается влияние влажности воздуха и скорости ветра на теплоощущения человека.
Tes - Эффективная температура на солнце - температура, которую ощущает человек, с поправкой на солнечный нагрев. Характеристика знойности погоды. Зависит от высоты солнца над горизонтом, облачности и скорости ветра. Ночью, в пасмурную погоду, а также при ветре 12 м/с и более поправка равна нулю.
P - Атмосферное давление - приведенное к уровню моря атмосферное давление.
Po - Атмосферное давление - измеренное на уровне метеостанции атмосферное давление.
Tmin - Минимальная температура - минимум температуры воздуха на высоте 2 м над землей.
Tmax - Максимальная температура - максимум температуры воздуха на высоте 2 м над землей.
R - Количество осадков - Количество выпавших осадков за период времени, мм. При наведении курсора мыши на число - период времени, за который выпало указанное количество осадков.
R24 - Количество осадков - Количество выпавших осадков за 24 часа, мм.
S - Снежный покров - Высота снежного покрова, см. При наведении курсора мыши на число - состояние снежного покрова и степень покрытия местности в баллах.